Terminal Aerodrome Forecast
Issued by NWS Austin/San Antonio, TX

Home | Current Version | Previous Version | Text Only | Print | Product List | Glossary On
Versions: 1 2 3 4 5 6 7 8 9 10 11 12 13 14 15 16 17 18 19 20 21 22 23 24 25 26 27
159
FTUS44 KEWX 221742
TAFDRT
TAF
KDRT 221742Z 2218/2318 33005KT P6SM OVC018
     FM222300 12005KT P6SM BKN022
     FM230300 10005KT P6SM OVC015
     FM231000 09007KT 4SM BR OVC008=

USA.gov is the U.S. government's official web portal to all federal, state and local government web resources and services.